Weather Roundup
Issued by NWS

Home | Current Version | Previous Version | Text Only | Print | Product List | Glossary On
Versions: 1 2 3 4 5 6 7 8 9 10 11 12 13 14 15 16 17 18 19 20 21 22 23 24 25 26 27 28 29 30 31 32 33 34 35 36 37 38 39 40 41 42 43 44 45 46 47 48 49 50
488
NZUS93 KARX 301710
HRRWXR

CURRENT HOURLY OBSERVATIONS ACROSS
MUCH OF THE UPPER MISSISSIPPI VALLEY
NATIONAL WEATHER SERVICE LA CROSSE WI
1200 PM CDT SAT JUL 30 2016


...SOUTHEAST MINNESOTA...


CITY           SKY/WX    TMP DP  RH WIND       PRES   REMARKS
ROCHESTER      MOSUNNY   75  65  70 VRB3      30.06S
ROCHESTER/MAYO PTSUNNY   76  61  59 E5        30.05S
WINONA         CLOUDY    77  61  57 E6        30.04S
AUSTIN         RAIN      68  64  88 W5        30.05S
ALBERT LEA     MOSUNNY   75  64  69 CALM      30.04F
DODGE CENTER   PTSUNNY   77  64  65 SE5       30.05S
PRESTON        CLOUDY    73  62  69 CALM      30.06S
OWATONNA       MOSUNNY   75  63  64 CALM      30.04S
FARIBAULT      MOSUNNY   73  64  73 CALM      30.04F
$$

...ELSEWHERE IN MINNESOTA...


CITY           SKY/WX    TMP DP  RH WIND       PRES   REMARKS
MINNEAPOLIS    CLOUDY    74  64  71 SE5       30.04F
INTNL FALLS    MOSUNNY   75  59  57 SE7       30.02F
DULUTH         MOSUNNY   70  58  65 SE7       30.07S
RED WING       SUNNY     77  57  50 S7        30.03S
REDWOOD FALLS  SUNNY     76  54  46 VRB3      30.03S
MANKATO        MOSUNNY   75  57  53 E6        30.04S
WORTHINGTON    SUNNY     73  52  47 VRB3      30.05F
FAIRMONT       SUNNY     75  54  46 CALM      30.04S
$$

...SOUTHWEST WISCONSIN...


CITY           SKY/WX    TMP DP  RH WIND       PRES   REMARKS
LA CROSSE      PTSUNNY   77  62  59 SE6       30.03S
PRAIRIE DU CHI PTSUNNY   75  62  64 NE3       30.02S
BOSCOBEL       MOSUNNY   78  64  61 VRB5      30.03R
LONE ROCK      CLOUDY    75  61  61 E10       30.04R
PLATTEVILLE    CLOUDY    76  65  68 E8        30.03R
FORT MC COY    MOSUNNY   76  62  61 E8        30.05S
CAMP DOUGLAS   PTSUNNY   77  64  65 E6        30.04S
MAUSTON-NEW LI MOSUNNY   76  64  65 E5        30.04S
VIROQUA        PTSUNNY   74  62  64 E9        30.05S
WIS DELLS      MOSUNNY   74  59  57 E7        30.05R
$$

...ELSEWHERE IN WISCONSIN...


CITY           SKY/WX    TMP DP  RH WIND       PRES   REMARKS
MILWAUKEE      PTSUNNY   73  62  68 NE15      30.03R
MADISON        PTSUNNY   76  62  62 NE12      30.03R
GREEN BAY      SUNNY     75  60  59 E13       30.06S
EAU CLAIRE     SUNNY     77  56  48 SE5       30.04S
BLACK RVR FLS  PTSUNNY   77  59  53 SE3       30.04S
MEDFORD        MOSUNNY   73  57  57 CALM      30.08S
WAUSAU         SUNNY     75  59  57 E10       30.06S
WIS RAPIDS     MOSUNNY   78  60  53 E8        30.07S
MARSHFIELD     MOSUNNY   77  61  57 SE8       30.06S
RICE LAKE      SUNNY     74  53  47 SE3       30.08S
$$

...NORTHEAST IOWA...


CITY           SKY/WX    TMP DP  RH WIND       PRES   REMARKS
WATERLOO       PTSUNNY   77  65  66 NW5       30.02S
DUBUQUE        MOSUNNY   75  67  76 N7        30.03R
DECORAH        PTSUNNY   73  66  78 E5        30.04R
MASON CITY     MOSUNNY   74  65  73 E5        30.06S
CHARLES CITY   PTSUNNY   75  66  73 E3        30.05S
OELWEIN        CLOUDY    73  66  78 CALM      30.04S
$$

...ELSEWHERE IN IOWA...


CITY           SKY/WX    TMP DP  RH WIND       PRES   REMARKS
DES MOINES     CLOUDY    76  64  66 N5        30.03S
IOWA CITY      CLOUDY    75  67  76 NW5       30.02S
FORT DODGE     CLOUDY    72  64  78 CALM      30.05S
MARSHALLTOWN   CLOUDY    73  67  81 NW3       30.03S
CEDAR RAPIDS   CLOUDY    76  67  73 NE6       30.01S
$$

...NORTHERN ILLINOIS...


CITY           SKY/WX    TMP DP  RH WIND       PRES   REMARKS
CHICAGO-OHARE  CLOUDY    72  65  78 NE9       30.00R
CHICAGO-MIDWAY PTSUNNY   74  65  73 E12       29.99R
MOLINE         PTSUNNY   79  68  69 E7        29.99S
ROCKFORD       CLOUDY    76  65  68 NE13      30.01S
PEORIA         CLOUDY    76  68  76 N3        29.98R
$$

NOTE: "FAIR" INDICATES FEW OR NO CLOUDS BELOW 12,000 FEET WITH NO
SIGNIFICANT WEATHER AND/OR OBSTRUCTIONS TO VISIBILITY. WIND
SPEEDS ARE IN MILES-PER-HOUR.




USA.gov is the U.S. government's official web portal to all federal, state and local government web resources and services.